Grand Forks, ND

7:59 PM CDT on September 24, 2017 (GMT -0500)
Grand Forks International

Weather History for KGFK - January, 2013

Change the Weather History Date:

Friday, January 25, 2013

  Actual Average Record
Temperature  
Mean Temperature 2 °F 7 °F  
Max Temperature 13 °F 17 °F 42 °F (2002)
Min Temperature -9 °F -3 °F -31 °F (1972)
Degree Days  
Heating Degree Days 63 58  
Month to date heating degree days 1395 1463  
Since 1 July heating degree days 5153 5322  
Cooling Degree Days 0 0  
Month to date cooling degree days 0 0  
Year to date cooling degree days 0 0  
Moisture  
Dew Point -6 °F    
Average Humidity 74    
Maximum Humidity 83    
Minimum Humidity 65    
Precipitation  
Precipitation T in 0.01 in 0.31 in (2004)
Month to date precipitation 0.42 0.45  
Year to date precipitation 0.42 0.45  
Snow  
Snow 0.10 in 0.30 in 12.90 in (2004)
Month to date snowfall 3.9 8.9  
Since 1 July snowfall 18.9 28.8  
Snow Depth 5.00 in    
Sea Level Pressure  
Sea Level Pressure 30.14 in    
Wind  
Wind Speed 14 mph (NNW)    
Max Wind Speed 30 mph    
Max Gust Speed 37 mph    
Visibility 7 miles    
Events Snow    
T = Trace of Precipitation, MM = Missing Value Source: NWS Daily Summary

Daily Weather History Graph

Daily Weather History Graph

Search for Another Location

Airport or City:

Trip Planner

Search our weather history database for the weather conditions in past years. The results will help you decide how hot, cold, wet, or windy it might be!

Date:

Astronomy

Jan. 25, 2013 Rise Set
Actual Time 8:04 AM CST 5:18 PM CST
Civil Twilight 7:30 AM CST 5:52 PM CST
Nautical Twilight 6:52 AM CST 6:30 PM CST
Astronomical Twilight 6:16 AM CST 7:06 PM CST
Moon 4:17 PM CST 6:45 AM CST
Length of Visible Light 10h 22m
Length of Day
9h 14m
Waxing Gibbous, 98% of the Moon is Illuminated
Jan 25
Waxing Gibbous
Jan 26
Full
Feb 3
Last Quarter
Feb 10
New
Feb 17
First Quarter

Hourly Weather History & Observations

Time (CST) Temp. Windchill Dew Point Humidity Pressure Visibility Wind Dir Wind Speed Gust Speed Precip Events Conditions
12:53 AM 12.0 °F -3.4 °F 5.0 °F 73% 29.93 in 10.0 mi SW 13.8 mph - N/A   Overcast
1:53 AM 12.0 °F -6.9 °F 5.0 °F 73% 29.91 in 7.0 mi West 21.9 mph 27.6 mph N/A   Overcast
2:53 AM 10.9 °F -8.8 °F 3.9 °F 73% 29.93 in 5.0 mi WNW 23.0 mph 29.9 mph 0.00 in Snow Light Snow
3:01 AM 10.4 °F -8.6 °F 3.2 °F 73% 29.86 in 4.0 mi WNW 20.7 mph 28.8 mph 0.00 in Snow Light Snow
3:25 AM 10.4 °F -11.7 °F 3.2 °F 73% 29.86 in 1.8 mi WNW 29.9 mph 36.8 mph 0.00 in Snow Light Snow
3:53 AM 9.0 °F -11.8 °F 3.0 °F 77% 29.94 in 2.0 mi WNW 24.2 mph - 0.00 in Snow Light Snow
4:04 AM 8.6 °F -12.7 °F 1.4 °F 73% 29.86 in 3.0 mi WNW 25.3 mph 33.4 mph 0.00 in Snow Light Snow
4:14 AM 8.6 °F -13.4 °F 3.2 °F 79% 29.87 in 2.0 mi NW 27.6 mph 36.8 mph 0.00 in Snow Light Snow
4:48 AM 6.8 °F -14.7 °F -0.4 °F 72% 29.89 in 5.0 mi NW 24.2 mph - 0.00 in Snow Light Snow
4:53 AM 5.0 °F -16.7 °F -0.9 °F 76% 29.97 in 4.0 mi NW 23.0 mph 33.4 mph 0.00 in Snow Light Snow
5:34 AM 3.2 °F -19.9 °F -2.2 °F 78% 29.93 in 6.0 mi NW 25.3 mph 32.2 mph 0.00 in Snow Blowing Snow
5:53 AM 3.0 °F -18.3 °F -2.9 °F 76% 30.02 in 6.0 mi NW 20.7 mph - 0.00 in Snow Light Snow
6:18 AM 1.4 °F -21.4 °F -5.8 °F 72% 29.97 in 7.0 mi NNW 23.0 mph 36.8 mph N/A Snow Blowing Snow
6:53 AM -0.0 °F -22.9 °F -7.1 °F 72% 30.07 in 10.0 mi NW 21.9 mph 33.4 mph N/A Snow Blowing Snow
7:53 AM -2.0 °F -26.0 °F -8.0 °F 76% 30.12 in 8.0 mi NNW 23.0 mph - N/A Snow Blowing Snow
8:53 AM -2.9 °F -26.1 °F -9.0 °F 75% 30.17 in 7.0 mi NNW 20.7 mph - N/A Snow Blowing Snow
9:53 AM -2.0 °F -24.4 °F -9.0 °F 72% 30.21 in 8.0 mi NNW 19.6 mph 28.8 mph N/A Snow Blowing Snow
10:53 AM -2.0 °F -25.0 °F -9.0 °F 72% 30.25 in 5.0 mi North 20.7 mph - N/A Snow Blowing Snow
11:53 AM -0.9 °F -23.0 °F -9.0 °F 69% 30.28 in 3.0 mi NNW 19.6 mph - N/A Snow Blowing Snow
12:16 PM -2.2 °F -24.7 °F -7.6 °F 78% 30.21 in 2.0 mi North 19.6 mph - N/A Snow Blowing Snow
12:53 PM -0.9 °F -23.0 °F -9.0 °F 69% 30.29 in 2.0 mi NNW 19.6 mph - N/A Snow Blowing Snow
1:37 PM -0.4 °F -20.5 °F -7.6 °F 72% 30.22 in 3.0 mi NNW 16.1 mph - N/A   Haze
1:53 PM -0.9 °F -22.4 °F -8.0 °F 72% 30.29 in 3.0 mi NNW 18.4 mph - N/A   Haze
2:53 PM -0.0 °F -18.7 °F -8.0 °F 69% 30.31 in 10.0 mi NNW 13.8 mph - N/A   Scattered Clouds
3:23 PM -0.4 °F -19.2 °F -9.4 °F 66% 30.25 in 9.0 mi NNW 13.8 mph - N/A   Mostly Cloudy
3:41 PM -2.2 °F -20.7 °F -9.4 °F 71% 30.24 in 9.0 mi North 12.7 mph - N/A   Scattered Clouds
3:53 PM -2.0 °F -19.6 °F -9.0 °F 72% 30.32 in 9.0 mi North 11.5 mph - N/A   Scattered Clouds
4:53 PM -2.0 °F -15.4 °F -9.0 °F 72% 30.33 in 10.0 mi North 6.9 mph - N/A   Scattered Clouds
5:53 PM -5.1 °F -19.1 °F -11.0 °F 76% 30.37 in 10.0 mi NNW 6.9 mph - N/A   Scattered Clouds
6:53 PM -6.0 °F -14.7 °F -11.9 °F 75% 30.35 in 10.0 mi NNE 3.5 mph - N/A   Partly Cloudy
7:53 PM -6.0 °F - -11.9 °F 75% 30.35 in 10.0 mi Calm Calm - N/A   Partly Cloudy
8:53 PM -6.0 °F - -11.9 °F 75% 30.37 in 10.0 mi Calm Calm - N/A   Scattered Clouds
9:53 PM -6.0 °F -14.7 °F -11.9 °F 75% 30.37 in 10.0 mi East 3.5 mph - N/A   Partly Cloudy
10:53 PM -7.1 °F -15.9 °F -11.9 °F 79% 30.38 in 10.0 mi SE 3.5 mph - N/A   Partly Cloudy
11:53 PM -8.0 °F -21.0 °F -13.0 °F 79% 30.37 in 10.0 mi SSE 5.8 mph - N/A   Scattered Clouds